{"data":{"norad_id":55172,"intl_designator":"2023-004AJ","name":"ONEWEB-0709","alt_names":[],"object_type":"PAYLOAD","status":"ACTIVE","operator":null,"country":"UK","launch_date":"2023-01-10","launch_site_code":"AFETR","launch_vehicle":null,"mission":null,"orbit_class":"UNKNOWN","rcs_meters":null,"size_class":null,"mass_kg":null,"dimensions":null,"purposes":["comms"],"wikipedia_slug":null,"has_3d_model":false,"image_url":null,"decayed_at":null,"tle_current":{"epoch":"2026-05-25T02:04:26.352768Z","epoch_age_seconds":81783,"freshness":"FRESH","line1":"1 55172U 23004AJ  26145.08641612 -.00000401  00000+0 -11676-2 0  9994","line2":"2 55172  87.8908  25.6761 0000923  88.9988 271.1245 13.11418427162848","mean_motion":13.11418427,"eccentricity":9.23e-5,"inclination_deg":87.8908,"raan_deg":25.6761,"arg_perigee_deg":88.9988,"mean_anomaly_deg":271.1245,"bstar":-0.0011676,"rev_number":16284,"period_min":109.80477095279,"perigee_km":1216.9758821833,"apogee_km":1218.3780694432,"semimajor_km":7595.8139758132,"source":"CELESTRAK","updated_at":"2026-05-25T13:38:22.646489Z"}}}